TITAN 3C TRANSTAGE DEB, 21692

Orbit data source: Space-Track

TITAN 3C TRANSTAGE DEB, 21692 is space debris in HEO originally from a launch on Tue, 21 Dec 1965 UTC launched from the Air Force Eastern Test Range (AFETR). Debris objects in space refer to the collection of defunct objects orbiting the Earth. Examples of debris include non-operational satellites, rocket bodies, and fragments generated from explosions, collisions, or faulty payload assembly.

Loading next visibility...
Identifier
21692, 1965-108AF
Orbit
HEO
Country
Flag of USUS
Related business
Manufacturer
Unknown
Mission
Spacecraft
Bus & Motor
Unknown
Mass
Unknown
Launch date (UTC)
1965-12-21 (60 years ago)
Launch vehicle
Unknown
Launch site
Air Force Eastern Test Range (AFETR)
Object type
Payload
Rocket body
Debris
Shape & HBR
Unknown shape, 0.1 m
Radar Cross Section
Medium (>0.1 m² and <1 m²)

Expand to show TLE details & history
Last TLE update: 2 days ago

TLE from 2 days ago
0 TITAN 3C TRANSTAGE DEB
1 21692U 65108AF  26103.56904676 -.00000104  00000-0 -51688-3 0  9993
2 21692  27.5408 207.8410 6169843  83.6243   5.0583  3.60792553162160
Epoch: 2026-04-13T13:39Z
TLE epoch observation values (Epoch: 2026-04-13T13:39:25.640Z)
Latitude
25.89571°
Longitude
-86.50383°
Altitude
788.301 km
Speed
9.439 km/s
True Right ascension
21h 20m 26s
True Declination
25° 45' 41"
Sunlit
Object was in daylight at epoch
Visualization orbit readout
Latitude
Unknown
Longitude
Unknown
Altitude
Unknown
Speed
Unknown
Apparent Right ascension
Unknown
Apparent Declination
Unknown
Sunlit
N/A
Visualization observer readout
Local Sidereal Time
12:25:49
Azimuth
Unknown
Elevation
Unknown
Doppler factor
Unknown
Orbital elements
Apogee altitude
22,663.352 km
Perigee altitude
500.932 km
Semi-major axis
17,960.279 km
Eccentricity
0.61698
Inclination
27.5408°
RAAN
207.841°
Arg. of periapsis
83.6243°
True anomaly
26.40322°
Mean anomaly
5.0583°
Eccentric anomaly
13.02621°
Mean motion
0.90172 °/min
Orbital period
399.24 mins
BSTAR
-0.00051688
Loading maneuver chart data...
Computing Atmospheric mass density...

Documentation

Showing up to 5 results
|